Theta_e
315 315 322 325 330 335 339 338 344 347 347 348 347 348 348 346 347 352 352 356 352 352 351 342 335 328 327 323 323 325 326 327 327 329 332 334 335 332 330 331 331 331 331 331 332 334 335 335 335
316 319 324 327 332 339 340 341 345 346 347 348 345 344 345 347 347 350 350 354 354 353 353 347 339 336 330 328 323 324 324 325 325 325 325 326 328 329 330 332 332 332 331 330 330 331 330 330 329
320 321 327 330 331 336 341 344 344 347 347 344 344 344 347 349 350 351 349 351 355 353 352 338 336 338 337 332 328 323 324 324 325 325 325 325 326 327 328 329 330 330 329 330 330 330 331 332 332
323 322 323 328 329 329 339 343 345 346 346 346 344 348 347 350 351 353 349 352 356 356 353 342 337 334 334 337 334 332 327 324 324 325 326 326 326 326 326 326 326 326 327 328 328 329 331 332 332
321 324 327 328 328 332 337 343 343 345 344 343 344 347 347 351 352 351 356 357 356 355 352 341 336 332 330 331 337 336 334 334 331 327 326 327 327 328 328 328 328 328 328 327 327 327 326 326 328
323 324 327 328 329 334 339 344 344 345 346 345 347 346 346 348 355 353 352 354 354 351 347 339 332 327 325 327 330 335 337 337 336 336 335 332 329 327 328 329 330 330 330 331 331 331 330 329 327
325 326 329 329 331 339 341 345 346 345 345 344 347 348 346 346 348 349 348 345 343 342 343 334 334 330 328 326 328 330 333 335 337 337 337 337 337 337 334 331 329 329 330 331 332 333 333 333 332
323 326 329 332 331 341 343 342 342 342 340 339 343 346 347 343 341 341 342 341 339 338 339 344 348 348 348 338 330 328 329 332 334 335 336 336 336 336 336 336 337 336 335 334 333 332 333 334 335
320 326 328 331 332 339 341 343 340 336 341 341 340 344 344 341 340 340 340 339 338 337 336 334 334 335 335 334 340 341 338 336 335 334 334 333 341 344 345 348 343 341 340 339 337 334 333 332 331
324 326 327 331 334 336 341 338 341 340 341 342 344 344 343 342 343 342 339 336 332 328 327 326 325 324 324 322 320 321 321 322 325 328 332 337 340 342 342 342 341 342 339 337 338 339 339 339 341
324 326 325 326 332 334 336 336 338 337 339 340 342 341 342 342 342 336 332 330 328 326 325 324 319 319 323 321 323 319 319 319 321 319 318 319 319 328 333 335 337 340 340 341 343 345 345 345 346
323 323 325 326 333 334 334 334 336 333 333 335 337 337 340 336 331 329 328 327 326 325 324 323 319 317 317 321 322 322 323 323 323 316 315 316 323 326 327 329 330 332 334 337 338 338 340 343 344
325 323 324 328 335 333 332 331 332 331 334 335 336 337 334 330 328 327 325 325 325 324 324 323 319 318 318 319 318 316 320 320 320 322 317 316 322 317 322 322 322 325 328 330 331 332 334 337 339
324 323 324 327 331 332 330 331 329 332 334 335 336 334 330 329 328 326 326 327 326 324 325 321 321 320 321 320 318 319 317 321 322 322 317 318 318 315 322 322 321 320 320 320 320 322 327 330 334
324 324 324 325 326 328 328 329 328 331 333 334 334 332 329 328 327 326 327 328 327 326 322 321 321 320 320 319 322 321 324 323 324 324 319 316 316 317 317 323 322 321 321 321 319 319 319 320 324
325 325 325 326 325 327 328 327 327 331 332 333 333 332 329 329 327 328 327 328 328 327 323 321 324 324 320 320 320 323 325 325 325 325 325 324 322 322 322 323 323 323 323 321 320 319 318 317 318
327 327 326 325 326 328 329 328 327 330 331 332 332 331 329 329 329 329 328 328 328 323 324 322 321 324 326 321 320 320 321 324 326 326 326 325 324 323 324 323 323 323 323 321 320 319 318 317 317
328 327 327 327 326 326 328 328 329 330 331 331 331 331 330 329 330 330 330 328 328 328 322 321 322 321 320 320 320 325 327 327 326 326 326 327 326 325 324 323 323 322 321 319 318 318 317 317 318
327 326 326 326 326 326 328 328 328 329 330 331 331 331 330 330 330 330 329 329 328 326 323 322 322 321 321 322 327 326 325 326 326 326 326 326 326 325 324 322 320 319 318 317 317 317 316 317 317
326 326 327 326 325 326 328 329 329 329 330 330 330 330 331 331 331 330 331 330 329 330 329 332 328 326 324 325 328 326 325 327 327 326 326 325 324 322 320 318 317 317 316 316 316 316 316 317 317
325 326 327 327 325 326 327 328 328 328 329 330 330 330 330 331 331 331 331 330 331 331 332 332 327 324 324 323 323 326 327 326 325 324 323 321 319 317 316 315 314 314 314 314 315 315 316 317 318
327 325 325 325 326 326 326 327 329 328 329 330 330 330 330 331 331 331 331 330 331 332 329 324 322 321 320 319 322 322 321 323 322 319 317 316 315 314 313 312 312 312 313 312 312 312 313 314 315
325 323 323 323 324 325 325 325 325 328 328 329 329 328 328 328 331 331 331 329 329 326 324 320 320 319 320 321 321 320 318 317 316 315 314 313 311 311 310 310 310 310 309 309 308 307 308 311 311
323 324 324 324 324 326 325 325 324 326 327 328 328 328 328 328 328 330 329 326 326 326 324 320 320 320 320 319 318 316 314 313 311 310 310 310 309 308 308 309 308 307 307 307 307 307 307 307 308
323 324 327 326 326 324 324 324 324 327 328 330 330 330 330 330 330 329 325 325 325 325 324 323 320 319 318 316 315 313 311 308 308 309 308 306 304 304 305 305 304 305 305 306 306 306 306 306 306
324 325 330 337 325 325 325 327 330 330 329 329 329 329 329 328 327 325 324 325 325 324 322 320 318 316 315 314 312 309 307 307 307 306 304 302 302 303 303 304 306 306 306 306 306 305 305 305 306
324 324 326 326 326 327 326 327 326 328 330 331 329 329 329 328 325 324 325 325 323 322 319 317 316 314 313 310 308 307 307 306 304 304 303 303 302 303 303 305 307 307 307 306 306 306 305 305 305
324 325 326 326 331 330 327 326 326 326 328 330 329 328 328 327 324 325 324 323 321 319 316 315 314 312 309 307 306 306 305 304 303 302 303 304 304 304 305 304 305 306 307 306 306 307 307 306 306
324 325 325 329 328 332 331 326 326 326 326 327 327 327 328 326 325 325 323 321 319 316 314 312 311 308 307 306 305 304 303 303 304 303 303 304 304 304 304 305 305 306 307 307 307 307 306 306 306
324 325 327 328 330 332 331 330 326 327 327 328 327 329 328 324 325 323 322 319 316 314 312 310 308 306 305 304 303 302 301 302 303 303 304 304 305 305 304 304 305 306 306 307 307 308 307 306 307
Wind_Speed
3 2 2 5 6 7 9 7 6 10 7 3 9 7 16 14 8 7 5 7 10 8 6 7 8 8 8 8 8 8 7 6 5 5 5 5 5 6 6 5 4 4 4 5 6 7 6 6 6
2 3 3 6 7 9 7 8 11 7 8 9 9 8 7 10 12 10 8 9 9 8 8 6 6 7 7 8 8 8 8 7 7 6 4 4 4 5 5 5 4 5 6 6 7 8 9 9 9
3 4 8 5 5 7 10 8 9 10 12 6 6 11 7 6 7 6 5 7 8 8 7 6 6 5 5 6 7 7 7 7 6 5 5 4 4 4 5 5 6 7 8 9 10 11 12 12 12
2 4 6 7 9 6 10 11 14 14 9 3 11 11 11 6 3 4 6 9 9 9 6 5 4 4 4 4 5 5 6 6 5 4 4 4 4 5 5 6 7 8 9 10 11 13 14 14 14
5 6 6 8 8 8 3 14 15 11 10 10 10 10 9 7 8 9 9 9 8 8 7 5 5 4 4 5 5 5 5 4 4 5 5 5 6 7 8 9 9 10 12 13 13 14 15 16 16
10 6 9 12 11 9 10 12 11 10 11 11 15 12 8 6 8 9 8 9 9 8 7 4 4 3 2 3 4 5 6 6 6 6 7 8 9 10 12 13 14 14 15 16 17 17 18 18 19
14 9 6 10 14 13 15 11 8 10 14 9 9 7 8 9 10 11 11 12 11 10 8 5 4 3 2 1 1 3 5 7 9 9 10 11 13 13 14 16 17 19 19 20 21 21 21 21 21
6 5 9 9 16 18 13 9 5 10 9 8 5 5 10 13 12 13 13 12 11 11 10 9 9 6 6 4 3 3 4 5 8 10 12 13 13 16 16 17 19 22 23 24 25 26 25 25 25
3 7 11 9 15 14 16 11 4 4 11 7 5 8 16 16 13 12 12 11 11 10 10 9 8 7 6 7 6 7 8 10 10 12 15 14 9 12 14 17 22 24 25 26 27 28 28 28 29
8 8 9 7 7 17 18 11 12 11 12 11 15 16 16 15 12 9 9 9 10 10 10 10 10 11 10 11 11 11 11 10 12 13 15 13 15 17 19 19 23 24 25 26 26 27 27 27 26
4 4 6 9 9 18 15 8 7 12 10 11 16 18 16 13 11 10 10 9 9 10 10 11 13 14 11 11 10 10 9 10 13 15 16 18 18 15 12 14 14 15 18 18 17 19 21 21 22
7 7 6 10 13 15 16 10 9 7 9 10 17 17 16 15 13 10 9 9 9 10 11 11 13 15 16 11 11 11 10 10 9 14 16 15 11 12 14 13 15 15 15 17 17 18 19 21 23
9 7 7 12 15 15 11 11 8 8 9 15 18 16 16 15 12 11 12 13 12 12 12 11 12 12 14 15 16 18 12 10 12 12 17 19 13 16 12 13 14 15 16 17 18 19 20 21 22
6 10 10 12 14 11 12 10 11 9 15 17 17 17 16 14 13 13 12 10 10 11 11 9 8 8 7 8 10 11 11 9 9 10 16 16 15 19 13 14 15 15 16 17 19 21 22 24 24
10 11 11 14 14 10 9 11 10 17 18 18 17 17 16 15 14 12 10 9 9 8 7 5 3 5 6 6 5 5 5 6 7 8 14 18 19 20 23 17 18 17 18 20 21 21 22 23 25
12 12 13 13 15 9 15 15 14 19 21 20 19 18 17 17 16 13 11 10 9 8 6 3 3 4 6 8 10 9 9 9 10 11 11 13 15 16 20 20 22 22 24 24 24 24 24 24 25
9 12 16 13 18 10 17 11 17 21 22 20 21 21 20 19 18 16 14 12 11 10 8 7 6 6 8 12 14 16 17 16 14 15 15 16 17 18 20 23 25 26 27 27 27 27 25 27 27
13 12 13 11 16 13 18 16 16 23 24 23 23 22 22 22 22 19 17 15 14 13 12 11 10 11 14 16 20 18 17 17 17 18 18 19 20 22 23 27 29 29 32 32 32 32 32 30 29
6 10 12 8 5 15 18 18 12 20 24 22 23 24 25 26 22 19 17 16 15 14 14 14 15 17 19 19 17 19 21 22 22 21 22 23 24 26 26 29 32 34 36 37 36 34 33 31 28
11 12 11 6 6 11 14 17 14 18 25 27 26 25 26 23 23 22 20 17 17 15 15 15 19 20 23 21 18 23 25 23 23 25 25 25 25 28 32 35 36 34 35 35 34 33 32 31 26
11 11 9 10 7 10 7 14 15 15 21 23 24 24 23 24 25 24 21 18 16 15 14 14 19 22 23 26 21 17 17 20 23 27 29 32 31 36 39 39 35 31 30 32 30 29 29 32 29
11 6 5 7 10 12 9 13 19 16 17 20 23 24 24 25 25 23 21 17 14 12 14 17 17 18 20 21 15 19 22 22 25 34 33 36 35 34 35 32 31 31 29 30 29 29 28 27 28
2 5 5 5 9 7 10 8 11 13 15 17 21 22 24 26 25 23 18 15 10 6 8 13 14 14 13 15 18 23 27 29 31 33 36 35 35 29 30 30 30 28 27 25 27 29 31 34 34
10 7 6 6 8 10 13 10 9 10 9 6 6 13 15 16 19 18 11 7 5 2 2 7 8 11 14 18 24 30 35 39 40 36 34 32 30 30 28 26 27 27 28 26 27 26 26 27 28
11 8 6 7 7 5 4 6 12 2 1 2 6 8 9 10 14 14 10 8 4 3 1 3 8 12 20 26 31 36 38 39 33 32 30 32 29 26 26 27 27 29 29 30 29 31 31 28 28
15 8 2 4 3 3 6 6 4 2 3 4 6 8 9 10 10 9 8 7 5 2 2 6 12 19 25 31 34 34 33 28 29 26 28 27 27 26 30 31 32 32 31 30 31 30 30 28 28
8 10 4 6 5 8 5 4 9 7 6 8 12 12 12 10 8 9 8 7 5 2 5 11 19 24 29 32 31 31 29 27 24 26 26 25 28 31 32 33 33 33 32 31 29 30 29 26 28
11 10 6 7 4 8 4 4 7 7 7 9 12 13 13 11 11 10 8 6 3 3 8 15 22 26 27 28 28 26 25 22 24 24 27 29 31 33 33 32 33 33 33 31 29 28 28 27 27
7 11 7 4 3 4 5 4 4 6 3 7 11 12 14 12 11 10 8 4 3 6 11 17 22 25 24 25 25 23 22 23 24 26 27 32 32 32 32 32 33 33 31 29 27 27 27 27 26
11 12 14 8 8 6 7 8 3 5 6 5 7 4 8 11 11 10 6 3 5 10 15 18 22 21 21 22 22 21 22 23 24 26 29 30 31 31 29 30 31 30 29 28 27 26 25 24 24
Wind_Direction
246 256 242 235 231 234 126 117 112 120 138 52 85 30 77 43 7 71 105 103 120 134 127 146 141 128 120 125 130 129 135 144 152 167 180 188 192 191 190 193 202 222 243 257 266 269 270 271 270
173 220 233 264 238 162 117 135 133 105 84 119 98 118 88 78 66 92 107 104 128 129 128 133 138 135 132 130 137 139 140 144 151 157 169 182 189 197 209 222 238 257 266 268 270 276 278 278 276
155 215 254 251 238 131 136 147 122 112 131 132 103 76 66 72 66 96 98 120 139 115 121 131 136 148 156 148 144 150 151 147 147 150 157 163 176 196 214 236 253 265 273 278 281 283 284 283 280
199 227 235 234 176 77 128 140 130 134 140 105 111 89 91 60 119 105 123 124 135 133 119 128 120 137 167 185 174 163 163 167 171 180 186 195 205 218 233 247 258 267 271 275 279 281 281 280 279
208 237 218 223 132 125 142 135 155 138 133 138 129 110 93 63 84 122 104 121 137 132 113 145 139 143 163 181 197 202 199 198 202 212 228 238 240 246 251 255 260 265 268 271 274 275 277 276 275
222 257 213 182 153 137 138 145 143 136 129 109 117 109 83 93 99 118 124 122 129 128 113 112 112 111 133 171 196 212 223 229 238 244 248 256 262 260 260 260 259 260 263 266 268 270 272 274 272
264 225 207 146 151 155 143 160 180 148 130 77 132 106 113 112 117 119 121 120 108 105 105 117 105 97 95 110 227 240 249 249 250 254 258 258 259 265 268 270 271 271 266 266 267 267 268 267 270
248 258 188 163 170 147 144 146 153 169 88 123 121 141 144 141 124 115 113 109 109 103 93 81 88 85 77 2 334 304 280 274 268 264 263 269 276 275 275 277 282 275 277 276 274 272 270 269 268
239 223 187 180 181 144 161 153 136 125 130 101 88 107 137 137 130 123 118 110 103 92 86 86 77 61 46 25 3 335 308 300 292 287 283 286 292 284 286 280 282 286 284 281 279 277 276 275 273
245 223 164 163 123 159 168 177 151 159 145 111 112 123 135 140 143 139 134 121 107 100 90 78 65 51 39 25 10 356 342 324 310 303 302 293 289 289 290 295 290 291 287 287 289 285 281 277 278
187 169 159 169 171 157 161 156 169 186 186 157 155 147 148 150 148 139 128 122 115 103 90 73 56 57 60 41 36 13 346 338 330 321 314 310 309 297 306 303 301 296 298 300 287 286 289 279 272
133 111 169 155 168 162 163 152 181 203 61 143 148 146 148 148 145 141 136 130 122 117 101 89 63 55 51 52 40 27 21 19 12 354 354 345 339 324 315 311 306 303 296 291 297 286 281 276 274
136 130 131 154 166 167 155 186 155 167 134 141 145 150 150 148 145 142 136 132 126 116 115 105 86 64 47 46 34 31 33 14 7 8 2 5 4 354 344 334 327 310 301 299 294 291 288 284 282
132 146 144 156 164 168 191 155 190 147 150 149 155 158 159 160 158 154 151 140 134 134 128 109 95 61 56 46 36 34 29 17 7 355 349 350 352 346 348 340 331 326 317 310 305 296 290 288 281
149 149 156 180 173 177 198 178 214 161 168 165 169 169 171 173 173 169 165 161 158 152 144 103 80 30 17 359 353 335 348 329 332 330 336 333 332 329 331 327 326 322 318 318 309 303 298 292 284
189 184 184 177 187 173 208 186 194 172 179 183 182 184 187 186 187 192 191 188 189 191 197 175 221 270 327 321 320 311 306 307 305 303 304 305 315 314 317 315 314 308 314 311 305 302 296 292 286
197 201 210 161 192 165 211 241 167 184 192 193 194 196 199 199 202 206 207 209 212 212 221 240 266 275 285 303 307 306 303 304 298 296 298 295 299 302 302 306 305 302 303 303 301 299 295 291 287
191 234 194 209 191 208 205 246 169 190 196 202 202 206 209 212 215 215 215 216 224 229 239 255 271 282 289 294 298 299 297 298 297 295 296 292 296 297 296 299 299 297 297 295 292 287 289 285 284
244 225 204 196 159 210 227 221 188 198 206 209 207 212 216 220 221 220 221 223 230 238 253 267 274 280 284 287 288 291 293 293 290 292 291 292 294 296 295 298 297 294 292 288 285 287 286 282 279
209 210 202 145 179 220 223 231 215 194 212 214 215 217 221 222 221 220 222 224 234 246 259 268 272 276 278 282 285 287 287 285 284 287 292 294 296 295 296 295 294 291 289 285 284 282 281 278 273
206 220 212 244 169 221 251 229 203 219 218 222 228 230 229 226 222 221 224 229 241 254 266 270 270 276 278 280 294 298 296 296 294 292 289 292 291 294 295 296 294 290 288 287 283 280 277 277 273
203 215 232 213 222 245 210 260 193 203 215 220 226 232 234 230 229 228 229 236 251 257 253 269 276 279 282 289 293 297 303 300 293 297 296 291 295 293 295 295 293 291 286 279 279 277 266 267 267
48 167 220 235 246 291 213 252 269 186 217 221 226 236 238 235 229 228 228 240 232 243 256 274 279 285 290 298 301 303 301 299 300 299 297 297 301 297 294 294 293 290 287 283 278 279 273 263 263
136 171 196 230 246 239 240 237 254 200 223 220 223 239 241 233 222 218 216 207 196 179 261 274 287 293 301 303 303 305 306 306 305 305 305 305 298 298 298 296 289 294 293 293 288 281 278 279 267
203 201 231 221 203 245 103 239 270 103 207 276 196 198 187 187 191 196 204 200 179 143 90 358 299 308 308 310 311 311 310 311 313 309 309 305 309 307 305 302 303 303 297 293 289 283 276 276 275
208 237 210 269 208 131 173 242 122 143 194 211 202 180 174 185 191 195 201 186 168 123 6 332 320 315 314 314 314 316 316 314 313 311 313 312 309 308 308 310 309 308 304 298 294 287 283 276 275
171 228 304 248 259 269 252 172 222 193 196 195 193 192 194 194 183 179 165 148 138 74 325 318 318 320 318 319 320 320 319 317 317 317 315 312 310 310 311 312 312 313 309 305 300 292 286 277 272
240 137 189 215 254 264 178 266 281 170 185 189 201 202 197 177 178 166 151 140 117 15 343 326 323 322 323 322 322 321 321 318 318 317 318 319 318 318 316 315 313 311 309 306 298 291 287 284 275
175 211 222 287 281 257 296 296 112 198 225 208 216 206 190 187 174 161 147 125 47 2 340 329 327 327 326 325 324 324 323 321 321 326 323 326 325 324 322 321 316 313 309 308 301 290 284 277 273
247 232 202 220 203 217 275 272 150 214 256 242 262 194 167 171 161 150 134 87 11 350 338 335 331 330 329 327 325 325 324 328 330 328 329 332 329 329 326 324 322 320 316 312 305 297 286 275 269